Location: ???????
(55.2903°N, 39.1554°E)
Time: 02:20:36
(UTC+00:00)

Cosmos 2369 Rocket - Pass Details

Date: 14 April 2024
Orbit: 830 x 850 km, 71.0° (Epoch: 28 May)

Event Time Altitude Azimuth Distance (km) Brightness Sun altitude
Rises 01:29:41 0° 325° (NW) 3,400 5.3 -7.6°
Reaches altitude 10° 01:32:09 10° 327° (NNW) 2,459 4.6 -7.3°
Maximum altitude 01:37:48 81° 56° (NE) 850 2.4 -6.5°
Drops below altitude 10° 01:43:24 10° 144° (SE) 2,435 4.7 -5.8°
Sets 01:45:49 0° 145° (SE) 3,364 5.5 -5.5°
